{"data":{"norad_id":64916,"epoch":"2026-09-20T09:15:01.261728Z","epoch_age_seconds":134123,"freshness":"FRESH","line1":"1 64916U 25157N   26263.38543127  .00011530  00000+0  35176-3 0  9992","line2":"2 64916  53.1570 150.6070 0000706  81.6608 278.4474 15.34408750 66083","mean_motion":15.3440875,"eccentricity":7.06e-5,"inclination_deg":53.157,"raan_deg":150.607,"arg_perigee_deg":81.6608,"mean_anomaly_deg":278.4474,"bstar":0.00035176,"rev_number":6608,"period_min":93.847222912408,"perigee_km":462.19427200183,"apogee_km":463.1601949716,"semimajor_km":6840.8142334867,"source":"CELESTRAK","updated_at":"2026-09-21T09:00:35.456448Z"}}